Temperature
15 15 15 15 16 15 15 15 15 15 15 15 15 15 15 15 15 15 15 15 15 14 14 14 14 14 14 14 13 13 13 13 13 12 12 13 13 13 13 12 12 12 11
15 15 15 15 15 15 15 15 15 15 15 15 15 15 15 15 15 15 15 14 14 14 14 14 14 14 13 13 13 13 13 13 12 12 12 12 12 12 12 11 11 11 11
15 15 15 15 15 15 16 16 15 15 15 15 15 15 15 15 15 15 15 14 14 14 14 14 14 13 13 13 13 13 13 13 12 12 11 11 11 11 11 11 10 10 10
14 15 15 15 15 15 16 16 15 15 15 15 15 15 15 15 15 15 15 15 14 14 14 14 13 13 13 13 13 13 12 12 12 12 11 11 10 10 10 10 10 9 9
14 14 15 15 15 15 15 15 15 15 15 15 15 15 15 14 15 14 14 14 14 14 14 13 13 13 13 13 13 12 12 12 12 11 11 11 10 10 9 9 9 9 9
14 14 14 15 15 15 15 15 15 15 15 15 15 15 15 14 14 14 14 14 14 14 13 13 13 13 13 13 12 12 12 12 11 11 11 10 10 9 9 8 8 8 8
13 13 14 14 15 15 15 15 15 15 15 15 14 14 14 14 14 14 14 14 14 14 13 13 13 13 12 12 12 12 11 11 11 11 10 10 9 9 8 8 7 7 7
12 13 13 14 14 14 14 15 15 14 14 14 14 14 14 14 14 14 14 13 13 13 13 13 12 12 12 12 11 11 11 11 10 10 10 9 9 8 8 7 7 6 6
11 12 13 13 13 13 14 14 14 14 14 14 14 14 13 13 13 13 13 13 13 12 12 12 12 12 11 11 11 11 10 10 10 9 9 9 8 8 7 7 6 6 6
11 12 12 13 13 13 13 13 13 13 13 13 13 13 13 13 13 13 12 12 12 12 12 11 11 11 11 11 10 10 10 9 9 9 8 8 8 7 7 7 6 5 5
10 11 11 12 12 12 12 12 12 12 12 12 12 12 12 12 12 12 12 11 11 11 11 11 11 10 10 10 10 9 9 9 8 8 8 7 7 6 6 6 6 5 4
9 10 10 11 11 11 12 12 12 12 12 12 12 12 11 11 11 11 11 11 10 10 10 10 10 10 10 9 9 9 8 8 7 7 7 6 6 5 5 5 5 4 4
9 9 9 10 10 10 11 11 11 11 11 11 11 11 11 10 10 10 10 10 10 10 9 9 9 9 9 9 8 8 8 7 7 6 6 5 5 4 4 4 4 4 3
8 8 8 9 9 9 10 10 10 10 10 10 10 10 10 10 10 9 9 9 9 9 9 9 8 8 8 8 7 7 7 6 6 5 5 4 4 4 3 3 3 3 3
7 7 7 8 8 9 9 9 9 9 9 9 9 9 9 9 9 8 8 8 8 8 8 8 8 7 7 7 7 6 6 5 5 4 4 3 3 3 3 3 2 2 2
6 6 7 7 7 8 8 8 8 9 9 9 9 8 8 8 8 8 8 8 8 7 7 7 7 7 6 6 6 5 5 4 4 3 3 2 2 2 2 2 2 2 2
6 6 6 6 6 7 7 7 7 8 8 8 8 8 7 7 7 7 7 7 7 7 7 6 6 6 6 5 5 4 4 4 3 3 2 2 2 1 1 1 1 1 1
5 5 5 5 6 6 6 6 7 7 7 7 7 7 7 7 7 7 7 6 6 6 6 6 5 5 5 4 4 4 3 3 2 2 2 1 1 1 1 0 1 1 1
4 4 5 5 5 5 6 6 6 6 7 7 7 7 6 6 6 6 6 6 6 5 5 5 5 4 4 4 3 3 3 2 2 1 1 1 0 0 0 -0 -0 0 0
4 4 4 4 5 5 5 5 6 6 6 6 6 6 6 6 6 6 5 5 5 5 4 4 4 4 3 3 3 2 2 1 1 1 0 0 -0 -0 -1 -1 -1 -1 -0
3 4 4 4 4 4 4 5 5 5 5 5 5 5 5 5 5 5 5 5 4 4 4 4 3 3 3 3 2 2 1 1 1 0 -0 -0 -1 -1 -1 -1 -1 -1 -1
3 3 3 4 4 4 4 4 4 4 4 5 5 4 5 4 4 4 4 4 4 4 3 3 3 3 2 2 2 1 1 0 0 -0 -1 -1 -1 -1 -2 -2 -2 -2 -2
2 3 3 3 3 3 3 3 4 4 4 4 4 4 4 4 4 4 4 3 3 3 3 3 3 2 2 1 1 1 0 -0 -0 -1 -1 -1 -2 -2 -2 -2 -2 -2 -2
2 2 2 3 3 3 3 3 3 3 3 3 3 3 3 3 3 3 3 3 3 3 3 2 2 2 2 1 1 0 -0 -0 -1 -1 -1 -2 -2 -2 -2 -3 -3 -3 -3
2 2 2 2 2 2 2 2 3 3 3 3 3 3 3 2 2 2 3 3 2 2 2 2 2 1 1 1 0 -0 -0 -1 -1 -1 -2 -2 -2 -2 -2 -3 -3 -3 -3
1 1 2 2 2 2 2 2 2 2 2 2 2 2 2 2 2 2 2 2 1 1 1 1 1 1 0 0 -0 -0 -1 -1 -2 -2 -2 -2 -2 -2 -2 -3 -3 -3 -3
Wind_Speed
6 3 4 5 5 6 8 10 11 10 9 6 6 6 7 6 5 6 9 11 11 12 10 6 5 6 5 5 5 3 3 2 2 1 1 2 1 1 2 2 2 3 3
6 4 3 4 5 6 8 8 10 11 11 9 7 5 5 4 5 4 5 9 10 10 9 7 6 5 5 5 5 4 3 2 3 3 1 2 2 2 2 3 3 3 4
7 6 4 5 5 7 8 8 9 10 11 11 6 4 4 3 4 4 5 6 8 9 8 8 6 5 5 5 5 5 5 3 2 2 3 2 3 1 1 2 3 3 3
6 5 5 5 6 7 6 7 8 9 9 9 9 10 9 8 8 6 6 5 7 8 8 8 7 6 5 5 4 4 3 3 3 2 2 3 3 2 1 0 1 3 3
5 6 6 6 6 5 4 5 7 8 8 9 10 11 9 7 5 5 6 6 5 5 6 6 5 5 5 5 5 4 4 3 3 3 2 2 2 3 3 3 2 1 1
5 5 5 4 4 3 3 3 5 6 6 8 9 10 10 8 7 7 7 6 4 4 5 5 5 4 4 4 4 4 4 3 3 3 3 3 2 3 3 4 3 3 2
4 4 4 4 4 3 3 3 4 5 5 6 7 8 8 9 10 8 8 7 5 4 5 5 5 4 4 4 4 4 3 3 3 3 2 2 2 1 2 3 2 2 1
4 5 4 4 4 4 3 2 4 4 4 5 6 6 6 6 6 6 6 7 6 5 6 6 5 5 5 5 4 3 3 3 3 2 2 1 1 1 1 2 2 2 2
6 6 5 4 3 3 3 3 3 4 4 4 5 5 6 6 6 5 5 5 5 5 6 6 6 5 5 5 5 4 3 3 3 2 2 1 1 0 1 1 2 3 3
7 6 5 5 4 3 3 2 2 3 3 3 4 3 4 4 5 5 5 5 5 6 7 6 7 6 5 5 5 4 4 4 2 2 2 1 1 0 0 0 1 2 3
8 7 6 5 4 3 2 2 1 1 2 2 2 3 3 4 5 5 6 6 6 7 7 7 7 6 5 5 5 4 4 4 3 2 3 2 1 1 0 0 1 1 2
7 7 6 6 5 5 4 3 2 1 2 2 3 3 3 4 5 5 6 7 7 6 6 7 7 6 5 5 5 5 4 4 3 3 3 2 2 1 0 0 1 1 1
8 7 7 6 6 5 5 4 3 2 1 2 3 3 4 4 5 5 6 6 7 7 6 6 6 6 6 5 5 5 4 4 3 3 3 3 3 2 1 1 1 1 0
7 7 7 7 7 6 5 4 4 2 2 3 4 5 5 5 5 6 6 6 7 7 7 6 6 6 5 5 5 5 5 4 3 3 2 2 2 2 2 1 1 1 1
8 8 8 7 7 7 7 6 4 3 2 3 5 5 5 5 5 6 6 6 6 7 7 6 6 5 5 4 5 5 5 5 4 3 2 2 2 3 3 2 2 2 2
7 8 8 8 8 8 7 7 6 4 2 3 4 4 6 6 6 6 6 6 6 6 6 6 6 5 4 7 8 6 5 5 4 3 2 1 1 2 2 2 2 3 3
8 8 8 8 8 8 7 7 6 4 2 3 4 5 6 6 6 7 7 7 6 6 6 6 6 5 5 7 8 8 6 5 4 4 3 2 1 2 2 3 3 2 1
9 9 9 9 8 8 7 7 5 4 3 4 4 5 6 6 6 7 7 6 5 6 5 6 6 5 5 7 7 8 6 4 4 4 4 3 2 2 3 3 3 3 3
9 9 8 8 8 8 7 6 5 3 3 4 5 6 7 7 7 7 7 5 5 5 5 5 6 6 5 7 7 7 5 4 4 3 4 4 4 5 5 4 3 2 2
8 8 8 7 7 7 6 5 5 4 4 4 5 5 6 8 8 8 6 4 5 5 6 5 5 6 5 7 8 8 4 4 3 3 3 6 6 7 7 5 4 3 1
9 8 7 7 7 6 5 5 5 5 5 3 3 4 6 6 7 6 5 6 6 6 5 5 4 5 6 7 9 9 5 5 5 4 3 4 8 8 8 7 5 6 4
9 8 7 7 7 5 5 5 6 5 3 2 3 4 5 5 5 7 6 6 7 7 6 5 4 4 5 7 8 11 9 8 6 5 4 5 8 9 9 6 7 8 6
8 7 6 7 7 5 4 5 5 4 3 1 2 3 4 4 5 7 7 6 6 6 5 5 5 4 4 5 10 11 11 11 6 5 8 9 9 8 6 8 9 7 5
7 7 6 6 7 6 5 4 4 3 2 1 1 2 3 4 4 5 6 6 7 6 6 6 6 4 4 5 5 5 6 8 6 5 7 9 9 7 7 6 5 4 5
7 6 6 6 7 6 6 5 4 3 2 0 1 2 2 3 3 4 5 6 6 7 7 6 6 6 6 8 11 7 5 5 5 5 3 3 3 4 4 3 3 4 4
6 6 6 6 6 5 5 5 4 3 1 0 0 1 2 2 3 3 2 4 6 8 9 9 8 7 8 8 10 12 11 11 11 7 4 5 5 6 6 6 5 5 5
Wind_Direction
270 271 241 217 201 197 201 203 195 194 186 186 191 193 205 204 203 206 205 200 198 194 191 189 183 180 186 189 185 177 188 198 167 148 318 324 10 41 9 19 37 38 43
278 271 257 228 210 207 210 209 203 196 193 195 194 191 185 196 203 198 197 195 191 191 193 187 187 183 181 180 179 174 172 184 169 164 177 310 328 28 41 41 49 42 52
255 263 257 238 224 220 216 215 214 208 201 195 183 170 161 160 178 194 201 198 189 190 190 185 178 177 178 186 186 183 180 189 194 192 183 202 245 285 10 47 49 48 48
255 256 257 252 241 238 229 217 214 214 207 195 191 193 200 206 204 196 194 187 184 182 182 178 175 173 172 178 185 182 180 173 196 209 219 215 189 207 260 247 62 60 53
258 257 251 249 253 250 237 225 217 215 208 200 198 201 210 214 201 181 178 181 180 174 175 177 170 170 170 175 171 166 170 179 187 189 186 209 221 215 223 247 217 178 101
271 269 271 268 269 266 243 229 217 220 210 204 202 202 204 201 190 189 188 186 177 175 169 160 158 162 163 168 164 161 164 173 179 184 188 194 206 214 220 239 224 215 188
286 282 279 277 279 275 252 227 213 223 212 200 200 203 204 199 198 195 191 184 181 182 178 161 154 152 147 142 142 147 153 158 169 181 199 207 215 209 218 233 238 211 179
309 294 285 274 273 272 265 238 222 226 213 203 200 195 194 197 196 191 185 185 187 180 166 155 149 141 136 136 134 135 137 134 140 151 167 179 196 210 221 224 227 236 209
323 311 308 300 283 276 265 237 223 227 215 203 195 194 193 192 186 179 174 168 160 153 149 143 137 133 133 135 134 133 130 129 133 144 144 156 163 184 228 237 230 233 239
334 331 325 317 304 286 281 273 227 225 221 202 195 191 189 180 165 155 160 155 146 141 141 140 137 132 129 126 124 123 127 128 131 136 134 140 168 154 31 258 250 241 239
333 331 331 327 321 324 323 311 288 246 226 205 180 160 159 151 148 147 148 146 143 144 145 145 139 135 131 128 125 125 130 132 128 124 138 145 139 139 39 308 242 239 232
337 336 339 340 339 334 330 313 294 261 232 191 160 151 140 135 137 143 143 141 140 138 140 137 133 132 131 130 133 138 136 138 148 152 148 159 151 148 136 187 225 227 230
348 351 349 345 339 333 326 315 304 270 233 170 160 154 153 151 150 147 140 137 134 131 129 129 133 135 135 135 137 141 138 141 150 156 164 169 159 172 188 200 222 232 214
343 348 347 343 336 329 321 312 308 278 220 178 172 178 177 166 155 147 141 139 138 136 135 132 133 135 136 137 136 137 134 131 128 131 147 160 172 189 197 205 217 197 151
341 343 339 335 333 330 325 317 307 287 228 194 189 190 169 152 145 141 139 137 137 139 135 131 131 133 136 145 146 144 143 140 134 127 133 154 184 199 195 193 194 173 156
331 333 333 331 329 325 320 317 309 296 234 208 204 178 159 154 152 147 142 138 135 134 134 141 144 145 153 162 161 153 148 150 153 155 149 147 151 176 173 153 164 171 171
326 326 325 322 319 317 313 305 298 295 245 220 201 178 168 164 160 153 148 150 149 144 144 149 150 153 164 169 167 164 151 154 163 167 167 165 149 124 90 85 75 59 97
324 321 318 315 314 311 312 305 300 282 242 219 201 183 173 170 161 156 159 157 151 153 154 158 159 160 176 180 177 166 145 150 166 176 180 175 167 158 143 118 88 54 31
310 306 303 302 304 307 311 312 308 289 252 227 208 193 180 173 168 170 170 162 156 158 160 162 165 167 181 188 183 164 145 159 177 185 185 181 185 195 168 142 131 95 28
310 307 307 308 308 310 315 314 308 294 266 245 221 198 185 180 178 176 169 160 159 163 159 164 171 173 182 195 194 177 157 170 180 186 200 205 202 206 189 162 161 173 186
312 311 312 311 306 308 315 314 309 292 279 255 212 196 187 182 175 166 161 156 155 155 161 169 177 181 193 205 205 192 174 179 183 192 202 219 217 215 207 189 182 198 178
318 317 315 314 311 312 313 310 303 300 293 249 207 193 181 174 166 159 160 158 157 162 171 176 186 197 204 212 217 209 204 193 186 198 201 212 219 219 216 204 202 203 176
314 313 310 313 316 316 309 302 304 311 305 258 202 183 168 165 166 165 164 164 167 174 181 185 196 204 202 215 223 220 215 209 196 199 207 212 218 219 218 213 212 199 167
312 314 317 319 319 323 323 310 309 319 319 262 198 173 166 166 169 172 172 176 181 184 187 194 201 202 203 209 215 215 217 215 207 199 213 217 218 212 208 214 212 182 178
313 318 320 317 317 323 329 331 331 338 345 337 186 174 178 175 179 187 194 192 198 194 191 197 194 195 211 218 210 199 199 191 188 170 166 173 182 194 192 190 190 186 191
315 320 321 321 321 325 330 337 339 340 346 342 222 189 181 179 181 184 199 211 210 214 214 208 202 212 220 221 216 216 216 211 201 187 189 199 202 207 207 207 205 202 205
Height
1485 1487 1489 1492 1494 1496 1499 1502 1504 1506 1510 1513 1515 1518 1520 1523 1525 1528 1530 1532 1534 1535 1537 1539 1540 1542 1543 1544 1545 1546 1547 1547 1548 1548 1547 1546 1546 1545 1544 1544 1544 1544 1544
1482 1484 1486 1489 1490 1492 1495 1498 1500 1503 1506 1508 1511 1514 1516 1519 1522 1524 1525 1527 1529 1531 1533 1535 1536 1537 1539 1540 1541 1542 1543 1543 1544 1544 1543 1543 1542 1540 1540 1540 1540 1541 1541
1479 1481 1483 1486 1487 1490 1491 1493 1496 1499 1502 1504 1507 1510 1512 1514 1516 1519 1520 1523 1525 1527 1529 1530 1532 1533 1535 1536 1537 1538 1539 1539 1540 1540 1541 1540 1538 1537 1537 1536 1537 1537 1538
1477 1478 1480 1482 1484 1486 1488 1490 1492 1495 1497 1500 1502 1504 1506 1508 1510 1513 1515 1518 1520 1522 1524 1526 1527 1529 1530 1531 1533 1534 1534 1535 1535 1536 1536 1537 1536 1536 1533 1533 1533 1533 1534
1474 1475 1477 1479 1481 1483 1484 1486 1488 1490 1492 1494 1497 1499 1501 1503 1506 1509 1511 1513 1515 1517 1519 1521 1522 1524 1525 1526 1528 1529 1530 1530 1530 1531 1531 1531 1531 1531 1531 1529 1529 1529 1530
1471 1473 1474 1476 1478 1479 1481 1482 1484 1485 1488 1490 1492 1494 1496 1499 1501 1503 1505 1508 1510 1512 1514 1516 1517 1519 1520 1522 1523 1524 1525 1525 1526 1526 1526 1527 1527 1526 1526 1525 1524 1524 1525
1469 1470 1471 1473 1474 1475 1477 1478 1479 1481 1483 1485 1487 1489 1491 1494 1496 1499 1501 1503 1505 1507 1509 1511 1513 1514 1516 1517 1518 1519 1519 1520 1520 1521 1521 1521 1521 1521 1521 1521 1520 1520 1520
1467 1467 1468 1469 1470 1472 1473 1474 1475 1476 1478 1479 1482 1484 1487 1489 1491 1494 1496 1498 1500 1502 1504 1506 1508 1509 1511 1512 1513 1514 1514 1515 1515 1515 1515 1516 1516 1516 1516 1516 1516 1516 1515
1465 1465 1466 1466 1467 1469 1470 1471 1471 1472 1474 1475 1477 1479 1481 1483 1486 1489 1491 1493 1496 1498 1499 1501 1503 1504 1506 1507 1508 1508 1509 1510 1510 1510 1510 1510 1510 1510 1510 1511 1511 1512 1511
1464 1464 1464 1464 1465 1466 1466 1467 1468 1469 1470 1472 1473 1475 1477 1479 1481 1484 1486 1488 1490 1492 1495 1496 1498 1500 1501 1502 1503 1503 1504 1504 1505 1505 1505 1505 1505 1505 1505 1505 1506 1506 1507
1464 1463 1463 1463 1463 1463 1464 1464 1465 1466 1467 1468 1470 1471 1473 1474 1476 1478 1481 1483 1485 1487 1490 1491 1493 1495 1496 1497 1498 1499 1499 1499 1500 1500 1500 1500 1500 1500 1500 1500 1500 1501 1501
1464 1463 1462 1462 1461 1461 1462 1462 1463 1463 1464 1465 1466 1468 1469 1471 1472 1474 1476 1479 1481 1483 1485 1487 1488 1490 1491 1492 1493 1494 1494 1495 1495 1495 1495 1495 1495 1495 1495 1496 1496 1496 1496
1464 1462 1461 1460 1460 1459 1459 1459 1460 1460 1461 1461 1462 1464 1466 1467 1468 1470 1472 1474 1476 1478 1480 1482 1483 1485 1486 1488 1488 1489 1490 1490 1490 1490 1490 1490 1490 1491 1491 1491 1491 1492 1492
1464 1462 1460 1459 1459 1458 1457 1457 1457 1457 1457 1458 1459 1460 1462 1463 1465 1466 1468 1470 1472 1474 1476 1478 1479 1481 1482 1483 1484 1485 1485 1485 1485 1486 1486 1486 1486 1487 1487 1487 1487 1488 1488
1464 1462 1460 1459 1458 1456 1455 1454 1454 1454 1453 1454 1455 1456 1458 1459 1461 1462 1464 1466 1468 1470 1472 1474 1475 1477 1478 1479 1480 1481 1481 1481 1481 1482 1482 1482 1482 1483 1483 1483 1483 1484 1485
1464 1462 1460 1458 1456 1454 1453 1451 1450 1450 1450 1450 1451 1452 1453 1455 1457 1459 1460 1462 1464 1466 1468 1470 1472 1473 1474 1475 1476 1476 1477 1477 1477 1478 1478 1478 1479 1479 1479 1480 1480 1481 1481
1462 1460 1458 1456 1454 1452 1450 1449 1447 1446 1446 1446 1447 1448 1450 1451 1453 1455 1457 1459 1461 1463 1464 1466 1468 1469 1470 1471 1472 1472 1473 1473 1474 1474 1474 1475 1475 1475 1476 1476 1477 1477 1478
1461 1458 1456 1454 1452 1450 1448 1446 1444 1443 1442 1443 1443 1444 1446 1447 1449 1451 1453 1455 1457 1459 1460 1462 1464 1465 1466 1467 1468 1468 1469 1469 1470 1471 1471 1471 1472 1472 1472 1473 1474 1474 1475
1460 1457 1454 1452 1449 1447 1445 1443 1441 1440 1439 1439 1439 1440 1442 1444 1445 1447 1449 1451 1453 1455 1457 1458 1460 1461 1462 1463 1464 1464 1465 1466 1467 1467 1467 1468 1468 1469 1469 1470 1471 1472 1473
1457 1454 1451 1449 1446 1444 1442 1439 1437 1436 1435 1435 1436 1437 1438 1440 1441 1443 1445 1447 1449 1451 1453 1454 1456 1457 1458 1459 1460 1460 1461 1462 1463 1464 1464 1465 1465 1466 1466 1467 1468 1469 1470
1453 1450 1448 1445 1443 1440 1438 1436 1434 1433 1432 1432 1432 1433 1434 1436 1438 1439 1441 1443 1445 1447 1449 1450 1452 1453 1454 1455 1456 1456 1457 1458 1459 1460 1461 1462 1462 1463 1464 1465 1466 1467 1468
1449 1447 1445 1442 1439 1437 1435 1433 1431 1430 1429 1428 1428 1429 1430 1432 1433 1435 1437 1439 1441 1443 1445 1446 1447 1449 1450 1451 1451 1452 1454 1454 1455 1457 1458 1459 1459 1460 1461 1462 1463 1464 1465
1447 1444 1442 1439 1436 1434 1432 1430 1428 1427 1426 1425 1425 1425 1426 1428 1429 1431 1433 1435 1436 1438 1440 1442 1443 1444 1446 1447 1447 1448 1449 1450 1452 1453 1454 1455 1456 1457 1458 1459 1460 1461 1462
1444 1441 1439 1436 1433 1431 1429 1427 1425 1424 1423 1422 1422 1422 1423 1424 1426 1427 1429 1431 1432 1434 1436 1437 1439 1440 1441 1442 1443 1444 1445 1446 1448 1449 1450 1451 1452 1453 1455 1456 1457 1458 1459
1441 1439 1436 1433 1431 1429 1427 1425 1423 1422 1421 1420 1420 1420 1421 1422 1423 1424 1426 1427 1429 1430 1432 1433 1434 1435 1437 1438 1439 1440 1441 1442 1444 1445 1446 1447 1448 1449 1451 1452 1453 1454 1455
1438 1436 1433 1430 1428 1426 1424 1423 1421 1420 1419 1418 1418 1418 1418 1419 1420 1421 1422 1423 1425 1426 1428 1429 1430 1431 1433 1434 1434 1436 1437 1438 1439 1440 1441 1442 1444 1445 1446 1448 1449 1450 1451